Date String (YYYY-MM-DD hh:mm:ss) UTC,Instrument flags,Ambient pressure (hPa),Sample flow (lpm),Bypass flow (lpm),Sample temperature (°C),Ambient temperature (°C),ASC tube jacket temperature (°C),LED temperature (°C),Box temperature (°C),Sample RH (%),Span deviation,Mass concentration (μg/m³),Mass concentration (μg/m³),Mass concentration (μg/m³)
DateTimeUTC,F1_M11,P_M11,Q1_M11,Q2_M11,T1_M11,T2_M11,T3_M11,T4_M11,T5_M11,U1_M11,ZSPAN_M11,X0_M11,X2_M11,X1_M11
2022-07-28 22:00:00,,0830.4,5.00,0.00,31.5,28.2,00.0,39.5,31.9,34.8,0000.7,0012.52,0008.71,0008.02
2022-07-28 22:01:00,,0830.4,5.00,0.00,31.5,28.3,00.0,39.5,31.9,34.9,0000.3,0012.42,0008.66,0007.98
2022-07-28 22:02:00,,0830.4,5.00,0.00,31.5,28.4,00.0,39.6,32.0,34.9,0000.3,0012.45,0008.65,0007.94
2022-07-28 22:03:00,,0830.4,5.00,0.00,31.5,28.5,00.0,39.6,32.0,34.9,0000.0,0012.36,0008.61,0007.93
2022-07-28 22:04:00,,0830.4,5.01,0.00,31.5,28.6,00.0,39.6,32.1,34.9,0000.0,0012.41,0008.58,0007.92
2022-07-28 22:05:00,,0830.4,4.98,0.00,31.6,28.7,00.0,39.6,32.1,34.8,0000.0,0012.52,0008.61,0007.92
2022-07-28 22:06:00,,0830.4,5.00,0.00,31.6,28.4,00.0,39.6,32.2,34.2,0000.0,0012.83,0008.62,0007.93
2022-07-28 22:07:00,,0830.4,5.01,0.00,31.6,27.8,00.0,39.5,32.0,34.3,0000.0,0013.01,0008.57,0007.94
2022-07-28 22:08:00,,0830.4,5.00,0.00,31.5,27.4,00.0,39.5,31.9,34.5,0000.0,0013.04,0008.59,0007.95
2022-07-28 22:09:00,,0830.4,5.00,0.00,31.4,27.3,00.0,39.5,31.8,34.6,0000.0,0012.83,0008.64,0007.96
2022-07-28 22:10:00,,0830.3,4.99,0.00,31.3,27.4,00.0,39.5,31.7,34.9,0000.0,0012.82,0008.65,0007.95
2022-07-28 22:11:00,,0830.2,5.00,0.00,31.3,27.5,00.0,39.5,31.8,35.2,0000.0,0012.79,0008.63,0007.93
2022-07-28 22:12:00,,0830.3,5.00,0.00,31.4,27.7,00.0,39.5,32.0,34.7,0000.0,0012.71,0008.58,0007.90
2022-07-28 22:13:00,,0830.3,5.00,0.00,31.4,27.9,00.0,39.5,32.0,34.6,0000.0,0012.79,0008.50,0007.86
2022-07-28 22:14:00,,0830.3,5.00,0.00,31.5,28.0,00.0,39.5,32.0,34.7,0000.0,0013.18,0008.49,0007.85
2022-07-28 22:15:00,,0830.3,5.01,0.00,31.5,28.2,00.0,39.5,32.0,34.9,0000.0,0013.69,0008.52,0007.86
2022-07-28 22:16:00,,0830.4,4.99,0.00,31.5,28.3,00.0,39.5,32.0,34.8,-000.2,0014.02,0008.54,0007.87
2022-07-28 22:17:00,,0830.3,4.99,0.00,31.5,28.4,00.0,39.5,32.0,34.9,0000.0,0013.72,0008.54,0007.88
2022-07-28 22:18:00,,0830.3,5.01,0.00,31.5,28.5,00.0,39.6,32.1,35.1,-000.2,0013.43,0008.58,0007.88
2022-07-28 22:19:00,,0830.4,4.99,0.00,31.7,28.5,00.0,39.6,32.2,34.7,-000.0,0013.60,0008.59,0007.87
2022-07-28 22:20:00,,0830.4,5.00,0.00,31.8,27.9,00.0,39.5,32.2,34.6,-000.6,0013.64,0008.58,0007.86
2022-07-28 22:21:00,,0830.4,5.00,0.00,31.8,27.4,00.0,39.5,32.0,34.3,-000.5,0013.74,0008.61,0007.84
2022-07-28 22:22:00,,0830.4,5.01,0.00,31.7,27.2,00.0,39.5,31.9,34.3,-000.2,0014.09,0008.67,0007.87
2022-07-28 22:23:00,,0830.4,4.99,0.00,31.6,27.2,00.0,39.5,31.9,34.4,0000.5,0014.26,0008.73,0007.91
2022-07-28 22:24:00,,0830.4,5.00,0.00,31.5,27.4,00.0,39.5,31.8,34.7,0000.3,0014.09,0008.78,0007.95
2022-07-28 22:25:00,,0830.4,5.01,0.00,31.5,27.6,00.0,39.5,31.9,34.9,0000.4,0013.77,0008.83,0007.98
2022-07-28 22:26:00,,0830.4,4.99,0.00,31.4,27.8,00.0,39.5,31.9,34.6,0000.2,0013.72,0008.86,0008.04
2022-07-28 22:27:00,,0830.4,5.00,0.00,31.4,27.9,00.0,39.6,32.0,35.1,0000.2,0013.50,0008.92,0008.07
2022-07-28 22:28:00,,0830.4,5.00,0.00,31.4,28.1,00.0,39.6,32.1,35.2,0000.0,0013.44,0008.96,0008.10
2022-07-28 22:29:00,,0830.5,5.00,0.00,31.7,28.3,00.0,39.6,32.2,34.9,0000.5,0013.71,0008.93,0008.10
2022-07-28 22:30:00,,0830.5,4.99,0.00,31.9,28.4,00.0,39.6,32.3,34.3,0000.4,0014.32,0008.90,0008.11
2022-07-28 22:31:00,,0830.5,5.00,0.00,32.0,28.5,00.0,39.6,32.4,34.2,0000.0,0014.51,0008.88,0008.11
2022-07-28 22:32:00,,0830.6,5.00,0.00,32.1,28.6,00.0,39.7,32.4,33.9,0000.0,0015.13,0008.89,0008.13
2022-07-28 22:33:00,,0830.6,4.99,0.00,32.1,28.2,00.0,39.7,32.3,33.9,0000.0,0015.45,0008.92,0008.13
2022-07-28 22:34:00,,0830.6,5.01,0.00,32.0,27.6,00.0,39.6,32.1,34.2,0000.0,0016.05,0008.96,0008.14
2022-07-28 22:35:00,,0830.6,4.99,0.00,31.9,27.3,00.0,39.7,32.0,34.4,0000.0,0015.98,0008.97,0008.16
2022-07-28 22:36:00,,0830.7,5.01,0.00,31.8,27.3,00.0,39.7,31.9,34.4,0000.4,0016.27,0008.96,0008.17
2022-07-28 22:37:00,,0830.7,4.99,0.00,31.7,27.5,00.0,39.7,31.9,34.7,0001.0,0016.38,0008.95,0008.16
2022-07-28 22:38:00,,0830.8,5.01,0.00,31.6,27.6,00.0,39.7,32.0,34.9,0000.8,0016.20,0008.92,0008.15
2022-07-28 22:39:00,,0830.7,4.99,0.00,31.5,27.8,00.0,39.7,32.0,35.0,0000.7,0016.24,0008.93,0008.17
2022-07-28 22:40:00,,0830.7,5.01,0.00,31.6,28.0,00.0,39.7,32.1,35.1,0001.0,0016.26,0008.99,0008.18
2022-07-28 22:41:00,,0830.8,4.99,0.00,31.8,28.2,00.0,39.7,32.3,34.5,0000.9,0015.51,0009.03,0008.21
2022-07-28 22:42:00,,0830.8,5.00,0.00,31.8,28.3,00.0,39.7,32.3,34.3,0000.8,0015.27,0009.04,0008.23
2022-07-28 22:43:00,,0830.8,4.99,0.00,31.8,28.4,00.0,39.7,32.3,34.6,0000.8,0015.06,0009.03,0008.24
2022-07-28 22:44:00,,0830.8,5.00,0.00,31.8,28.6,00.0,39.8,32.3,34.8,0000.3,0014.62,0008.97,0008.22
2022-07-28 22:45:00,,0830.8,5.00,0.00,31.8,28.6,00.0,39.8,32.3,35.0,0000.3,0014.08,0008.92,0008.21
2022-07-28 22:46:00,,0830.8,5.00,0.00,31.9,28.1,00.0,39.8,32.2,34.9,0001.3,0014.09,0008.92,0008.18
2022-07-28 22:47:00,,0830.8,5.01,0.00,31.8,27.5,00.0,39.7,32.0,34.7,0001.4,0014.71,0008.94,0008.18
2022-07-28 22:48:00,,0830.8,4.99,0.00,31.7,27.3,00.0,39.7,31.9,34.5,0000.5,0014.57,0008.94,0008.18
2022-07-28 22:49:00,,0830.7,5.00,0.00,31.5,27.3,00.0,39.7,31.8,34.9,0000.6,0014.57,0008.96,0008.18
2022-07-28 22:50:00,,0830.8,5.01,0.00,31.5,27.4,00.0,39.7,31.9,35.4,0000.3,0014.88,0008.97,0008.14
2022-07-28 22:51:00,,0830.8,4.99,0.00,31.7,27.6,00.0,39.7,32.1,35.5,-000.3,0014.80,0008.94,0008.11
2022-07-28 22:52:00,,0830.8,5.00,0.00,32.0,27.8,00.0,39.7,32.3,34.9,-000.2,0014.88,0008.92,0008.07
2022-07-28 22:53:00,,0830.8,4.99,0.00,32.2,28.0,00.0,39.7,32.4,33.9,-000.3,0014.87,0008.87,0008.01
2022-07-28 22:54:00,,0830.9,5.02,0.00,32.2,28.2,00.0,39.7,32.3,33.8,-000.3,0015.24,0008.86,0007.98
2022-07-28 22:55:00,,0830.9,4.99,0.00,32.3,28.3,00.0,39.8,32.3,33.9,0000.5,0015.96,0008.89,0007.97
2022-07-28 22:56:00,,0831.0,4.99,0.00,32.3,28.5,00.0,39.9,32.4,33.9,0000.3,0016.01,0008.90,0007.95
2022-07-28 22:57:00,,0830.9,5.00,0.00,32.2,28.6,00.0,39.9,32.4,33.8,-000.1,0016.54,0008.92,0007.95
2022-07-28 22:58:00,,0831.0,4.99,0.00,32.2,28.7,00.0,40.0,32.4,33.8,-000.4,0016.14,0008.87,0007.92
2022-07-28 22:59:00,,0831.0,5.00,0.00,32.2,28.7,00.0,40.0,32.4,34.2,0000.0,0016.72,0008.88,0007.91
